📊 Raw Sensor Data

Showing records 49826 to 49850 of 85,125 total

ID Distance (ft) Battery V Battery A Int Temp (°F) Int Humid (%) Ext Temp (°F) Solar V RSSI SNR Time Stamp
35312 15.0 3.94 -10 36 38 38 4.50 -78 8 03/18/2025 07:15 AM
35311 15.1 3.95 -5 35 39 38 1.40 -78 8 03/18/2025 07:00 AM
35310 15.1 3.95 -5 36 38 38 0.00 -78 8 03/18/2025 06:45 AM
35309 15.0 3.95 -24 35 39 37 0.00 -78 9 03/18/2025 06:30 AM
35308 14.6 3.96 -5 34 39 38 0.00 -77 8 03/18/2025 06:15 AM
35307 15.0 3.96 -5 34 39 37 0.00 -78 8 03/18/2025 06:00 AM
35306 15.0 3.96 -5 34 39 37 0.00 -77 8 03/18/2025 05:45 AM
35305 15.0 3.96 -5 34 39 37 0.00 -77 8 03/18/2025 05:45 AM
35304 15.1 3.96 -5 35 39 38 0.00 -77 8 03/18/2025 05:30 AM
35303 15.1 3.96 -5 34 39 37 0.10 -77 8 03/18/2025 05:15 AM
35302 15.1 3.96 -5 36 39 35 0.10 -77 8 03/18/2025 05:00 AM
35301 15.0 3.96 -5 35 40 40 0.10 -78 7 03/18/2025 04:45 AM
35300 15.0 4.01 -5 35 40 38 0.00 -78 8 03/18/2025 04:30 AM
35299 15.0 3.96 -5 36 40 36 0.00 -78 8 03/18/2025 04:15 AM
35298 15.0 3.97 -5 37 40 38 0.10 -79 8 03/18/2025 04:00 AM
35297 15.1 4.02 -5 38 40 39 0.00 -79 8 03/18/2025 03:45 AM
35296 -- 4.02 -5 39 39 41 0.00 -79 8 03/18/2025 03:30 AM
35295 15.0 3.97 -5 38 40 41 0.00 -79 8 03/18/2025 03:15 AM
35294 15.1 3.97 -5 39 40 39 0.00 -79 8 03/18/2025 03:00 AM
35293 -- 3.97 -5 40 40 42 0.10 -78 8 03/18/2025 02:45 AM
35292 15.0 4.02 -5 41 40 42 0.00 -79 9 03/18/2025 02:30 AM
35291 14.9 3.97 -5 41 40 43 0.00 -78 7 03/18/2025 02:15 AM
35290 -- 3.97 -5 42 40 43 0.00 -77 8 03/18/2025 02:00 AM
35289 -- 4.02 -5 42 40 44 0.10 -78 8 03/18/2025 01:46 AM
35288 -- 3.97 -5 43 39 44 0.00 -78 7 03/18/2025 01:30 AM